Погода в Журавке

Россия / Брянская область     52°58′36″N   34°22′01″E
темп.,
°C
ветер,
м/с
пор.,
м/с
влажн.,
%
обл.,
%
осадки,
мм/ч
давл.,
гПа
погр.,
м
11 мая, вт
вт1100:00+6ссв311801 0.0 1025231
03:00+5с310810 0.0 1025231
06:00+6ссв311815 0.0 1024291
09:00+13св58615 0.0 1023507
12:00+18св58515 0.0 1022919
15:00+21всв585266 0.0 10211413
18:00+17в6107299 0.3 10221215
21:00+10в31085100 0.4 1023480
12 мая, ср
ср1200:00+8в310920 0.0 1024307
03:00+7вюв411890 0.0 1025503
06:00+6всв389124 0.0 1025256
09:00+12в476242 0.0 1024823
12:00+15всв4652100 0.0 10221730
15:00+15всв4551100 0.4 10191756
18:00+11всв4784100 0.7 1018531
21:00+8в3109528 0.8 1017381
13 мая, чт
чт1300:00+9всв41292100 0.3 1015513
03:00+9юв4119489 1.4 10141026
06:00+8юв5129472 0.1 1015775
09:00+10ююв51082100 0.2 1015953
12:00+15ююв474911 0.0 10141848
15:00+17ю464161 0.0 10132292
18:00+16ююв355570 0.0 10131716
21:00+10ююв238120 0.0 101453
14 мая, пт
пт1400:00+9юв2486100 0.0 101566
03:00+9вюв2791100 0.0 1014139
06:00+11вюв399082 0.0 1014252
09:00+16вюв587712 0.1 1012570
12:00+21юв696641 0.5 10101375
15:00+21ююв587224 3.3 10091138
18:00+20ю378192 1.5 1009759
21:00+15ююв239552 2.2 100950
15 мая, сб
сб1500:00+14ююв229546 0.0 100914
03:00+13юв119625 0.0 100813
06:00+13ююв229758 0.4 100861
09:00+18юз35789 0.4 1008491
12:00+19юз4674100 2.8 1008918
15:00+20зюз346147 5.8 10071487
18:00+17зюз368297 2.4 1008481
21:00+13зюз25965 4.0 1009117